Flag for Germany Weather past 2 weeks in Haltern am See, North Rhine-Westphalia, Germany

Now
61 °F

Sunny.


Feels Like: 61 °F
Forecast: 49 / 62 °F
Wind: 10 mph from Southwest

Location: Dortmund / Wickede

Current Time: May 27, 2015 at 6:34:10 PM

Latest Report: May 27, 2015 at 5:50 PM


Visibility: 10 mi

Pressure: 30.15 "Hg

Humidity: 45%

Dew point: 39 °F

Location of Haltern am SeeLocation

Historic Weather in Haltern am See — Graph

°F

Haltern am See temperature yesterday

Maximum temperature yesterday: 57 °F (at 6:50 PM)
Minimum temperature yesterday: 48 °F (at 5:20 AM)
Average temperature yesterday: 52 °F

Past Weeks' High & Low Weather Summary

 TemperatureHumidityPressure
High68 °F (May 22, 3:50 PM)94% (May 25, 11:50 AM)30.33 "Hg (May 25, 11:50 AM)
Low39 °F (May 14, 5:20 AM)32% (May 13, 3:50 PM)29.62 "Hg (May 18, 7:20 PM)
Average55 °F60%30.05 "Hg
* Reported May 12 5:20 PM — May 27 5:20 PM, Haltern am See, Weather by CustomWeather, © 2015

Note: Actual official high and low records may vary slightly from our data, if they occured in-between our weather recording intervals... More about our weather records

Advertising

Haltern am See weather history for previous 24 hours

 ConditionsComfort  
Time TempWeatherWind HumidityBarometerVisibility
5:20 PM
Wed, May 27
59 °FPassing clouds.8 mph45%30.18 "HgN/A
4:50 PM59 °FSunny.8 mph45%30.18 "Hg10 mi
4:20 PM59 °FSunny.6 mph45%30.18 "Hg10 mi
3:50 PM59 °FSunny.7 mph45%30.18 "Hg10 mi
3:20 PM59 °FSunny.7 mph45%30.18 "Hg10 mi
2:50 PM59 °FSunny.5 mph42%30.21 "Hg10 mi
2:20 PM57 °FPassing clouds.5 mph48%30.21 "HgN/A
1:50 PM57 °FPassing clouds.7 mph48%30.21 "HgN/A
1:20 PM59 °FSunny.5 mph42%30.21 "Hg10 mi
12:50 PM57 °FSunny.5 mph44%30.24 "Hg10 mi
12:20 PM55 °FScattered clouds.5 mph47%30.24 "HgN/A
11:50 AM55 °FPartly sunny.5 mph44%30.24 "HgN/A
11:20 AM55 °FScattered clouds.8 mph47%30.24 "HgN/A
10:50 AM55 °FScattered clouds.9 mph51%30.24 "HgN/A
10:20 AM54 °FScattered clouds.7 mph58%30.24 "HgN/A
9:50 AM54 °FPassing clouds.8 mph58%30.24 "HgN/A
9:20 AM52 °FPassing clouds.7 mph62%30.24 "HgN/A
8:50 AM52 °FPassing clouds.5 mph67%30.24 "HgN/A
8:20 AM50 °FPassing clouds.5 mph71%30.24 "HgN/A
7:50 AM48 °FSunny.5 mph76%30.24 "Hg10 mi
7:20 AM48 °FPassing clouds.5 mph76%30.24 "HgN/A
6:50 AM46 °FSunny.5 mph82%30.24 "Hg10 mi
6:20 AM46 °FClear.5 mph82%30.24 "Hg10 mi
5:20 AM45 °FPassing clouds.7 mph87%30.24 "HgN/A
10:50 PM
Tue, May 26
50 °FPassing clouds.7 mph67%30.21 "HgN/A
10:20 PM50 °FScattered clouds.7 mph67%30.21 "HgN/A
9:50 PM52 °FPassing clouds.9 mph62%30.18 "HgN/A
9:20 PM52 °FScattered clouds.5 mph62%30.18 "HgN/A
8:50 PM52 °FPassing clouds.8 mph58%30.18 "HgN/A
8:20 PM54 °FPassing clouds.10 mph54%30.18 "HgN/A
7:50 PM55 °FSunny.13 mph51%30.15 "Hg10 mi
7:20 PM55 °FScattered clouds.12 mph51%30.15 "HgN/A
6:50 PM57 °FPartly sunny.13 mph48%30.15 "HgN/A
6:20 PM55 °FBroken clouds.7 mph51%30.15 "HgN/A
Weather by CustomWeather, © 2015

See weather overviewHow to use our weather pages